Location: Atbuku
(36.4936°N, 30.4362°E)
Time: 03:19:05
(UTC+00:00)

Cosmos 1076 Rocket - Pass Details

Date: 11 December 2025
Orbit: 582 x 603 km, 82.5° (Epoch: 13 January)

Event Time Altitude Azimuth Distance (km) Brightness Sun altitude
Rises 16:04:55 0° 353° (N) 2,852 6.9 -16.0°
Reaches altitude 10° 16:07:08 10° 354° (N) 1,947 6.0 -16.4°
Maximum altitude 16:11:27 85° 83° (E) 609 3.4 -17.3°
Drops below altitude 10° 16:15:45 10° 172° (S) 1,939 6.2 -18.1°
Sets 16:17:57 0° 173° (S) 2,837 7.1 -18.5°
